Regional Weather Roundup
Issued by NWS

Home | Current Version | Previous Version | Text Only | Print | Product List | Glossary On
Versions: 1 2 3 4 5 6 7 8 9 10 11 12 13 14 15 16 17 18 19 20 21 22 23 24 25 26 27 28 29 30 31 32 33 34 35 36 37 38 39 40 41 42 43 44 45 46 47 48 49 50
000
ASUS43 KBIS 160110
RWRND

NORTH DAKOTA REGIONAL WEATHER ROUNDUP
NATIONAL WEATHER SERVICE BISMARCK ND
800 PM CDT MON SEP 15 2014

NOTE: "FAIR" INDICATES FEW OR NO CLOUDS BELOW 12,000 FEET WITH NO
SIGNIFICANT WEATHER AND/OR OBSTRUCTIONS TO VISIBILITY.


NDZ001>003-009>011-017-160200-
NORTHWEST NORTH DAKOTA

CITY           SKY/WX    TMP DP  RH WIND       PRES   REMARKS
WILLISTON      CLEAR     63  32  31 S3        30.06F
MINOT          CLEAR     60  35  39 SW3       30.07F
MINOT AFB      CLEAR     58  38  47 SW7       30.06F
$$

NDZ018>021-031>035-040>046-160200-
SOUTHWEST NORTH DAKOTA

CITY           SKY/WX    TMP DP  RH WIND       PRES   REMARKS
BISMARCK       CLEAR     60  39  45 S6        30.12F
DICKINSON      CLEAR     58  39  49 S5        30.09F
GARRISON         N/A     58  43  57 CALM      30.09F
HETTINGER ARPT CLEAR     58  39  49 S7        30.12F
$$

NDZ004>008-012>016-024-026-027-054-160200-
NORTHEAST NORTH DAKOTA

CITY           SKY/WX    TMP DP  RH WIND       PRES   REMARKS
GRAND FORKS    PTCLDY    53  43  68 SW7       30.07F
GRND FRKS AFB  CLEAR     56  43  59 SW5       30.08F
DEVILS LAKE    CLEAR     59  39  47 W6        30.07F
$$

NDZ022-023-025-028>030-036>039-047>053-160200-
SOUTHEAST NORTH DAKOTA

CITY           SKY/WX    TMP DP  RH WIND       PRES   REMARKS
FARGO          CLEAR     54  39  57 SW8       30.13F
JAMESTOWN      CLEAR     53  40  61 S5        30.13F
$$




USA.gov is the U.S. government's official web portal to all federal, state and local government web resources and services.